Change the Weather History Date:

Wednesday, March 26, 2014

  Actual Average Record
Temperature  
Mean Temperature 29 °F 41 °F  
Max Temperature 45 °F 52 °F 85 °F (1907)
Min Temperature 12 °F 30 °F 5 °F (1955)
Degree Days  
Heating Degree Days 36 24  
Month to date heating degree days 964 766  
Since 1 July heating degree days 7003 6049  
Cooling Degree Days 0 0  
Month to date cooling degree days 0 0  
Year to date cooling degree days 0 0  
Moisture  
Dew Point 14 °F    
Average Humidity 59    
Maximum Humidity 84    
Minimum Humidity 33    
Precipitation  
Precipitation 0.00 in 0.07 in 1.34 in (1959)
Month to date precipitation 0.21 1.71  
Year to date precipitation 1.96 3.85  
Sea Level Pressure  
Sea Level Pressure 30.08 in    
Wind  
Wind Speed 15 mph (SSE)    
Max Wind Speed 28 mph    
Max Gust Speed 38 mph    
Visibility 10 miles    
Events      
T = Trace of Precipitation, MM = Missing Value Source: NWS Daily Summary

Daily Weather History Graph

Daily Weather History Graph

Search for Another Location

Airport or City:

Trip Planner

Search our weather history database for the weather conditions in past years. The results will help you decide how hot, cold, wet, or windy it might be!

Date:

Astronomy

Mar. 26, 2014 Rise Set
Actual Time 6:59 AM CDT 7:25 PM CDT
Civil Twilight 6:31 AM CDT 7:53 PM CDT
Nautical Twilight 5:59 AM CDT 8:26 PM CDT
Astronomical Twilight 5:25 AM CDT 9:00 PM CDT
Moon 4:12 AM CDT (3/26) 3:01 PM CDT (3/26)
Length of Visible Light 13h 21m
Length of Day
12h 25m
Waning Crescent, 21% of the Moon is Illuminated
Mar 26
Waning Crescent
Mar 30
New
Apr 7
First Quarter
Apr 15
Full
Apr 22
Last Quarter

Hourly Weather History & Observations

Time (CDT) Temp. Windchill Dew Point Humidity Pressure Visibility Wind Dir Wind Speed Gust Speed Precip Events Conditions
12:52 AM 14.0 °F - 8.1 °F 77% 30.27 in 10.0 mi Calm Calm - N/A   Clear
1:52 AM 12.9 °F 6.9 °F 9.0 °F 84% 30.27 in 10.0 mi SSE 3.5 mph - N/A   Clear
2:52 AM 12.9 °F 5.2 °F 9.0 °F 84% 30.27 in 10.0 mi SSE 4.6 mph - N/A   Clear
3:52 AM 14.0 °F 6.5 °F 9.0 °F 80% 30.27 in 10.0 mi SSE 4.6 mph - N/A   Clear
4:52 AM 14.0 °F 5.1 °F 9.0 °F 80% 30.26 in 10.0 mi SSE 5.8 mph - N/A   Clear
5:52 AM 15.1 °F 6.4 °F 9.0 °F 77% 30.25 in 10.0 mi SSE 5.8 mph - N/A   Clear
6:52 AM 17.1 °F 5.8 °F 10.0 °F 74% 30.27 in 10.0 mi South 9.2 mph - N/A   Scattered Clouds
7:52 AM 19.0 °F 6.8 °F 12.0 °F 74% 30.27 in 10.0 mi SSE 11.5 mph - N/A   Clear
8:52 AM 23.0 °F 9.6 °F 12.9 °F 65% 30.23 in 10.0 mi SSE 16.1 mph - N/A   Scattered Clouds
9:52 AM 27.0 °F 15.2 °F 14.0 °F 58% 30.22 in 10.0 mi South 15.0 mph 23.0 mph N/A   Clear
10:52 AM 33.1 °F 22.6 °F 15.1 °F 48% 30.20 in 10.0 mi South 16.1 mph 23.0 mph N/A   Clear
11:52 AM 36.0 °F 26.0 °F 15.1 °F 43% 30.16 in 10.0 mi South 17.3 mph 26.5 mph N/A   Clear
12:52 PM 39.0 °F 30.3 °F 15.1 °F 38% 30.12 in 10.0 mi South 16.1 mph 29.9 mph N/A   Partly Cloudy
1:52 PM 42.1 °F 33.3 °F 16.0 °F 35% 30.06 in 10.0 mi SSE 19.6 mph 31.1 mph N/A   Partly Cloudy
2:52 PM 43.0 °F 34.0 °F 15.1 °F 32% 29.99 in 10.0 mi SSE 21.9 mph 34.5 mph N/A   Scattered Clouds
3:52 PM 43.0 °F 34.2 °F 16.0 °F 34% 29.96 in 10.0 mi SSE 20.7 mph 36.8 mph N/A   Mostly Cloudy
4:52 PM 44.1 °F 34.8 °F 17.1 °F 34% 29.93 in 10.0 mi SSE 25.3 mph 33.4 mph N/A   Overcast
5:52 PM 42.1 °F 33.1 °F 17.1 °F 37% 29.91 in 10.0 mi SSE 20.7 mph 31.1 mph N/A   Overcast
6:52 PM 42.1 °F 33.9 °F 18.0 °F 38% 29.89 in 10.0 mi SSE 17.3 mph 28.8 mph N/A   Overcast
7:52 PM 42.1 °F 33.3 °F 18.0 °F 38% 29.88 in 10.0 mi SSE 19.6 mph 31.1 mph N/A   Overcast
8:52 PM 41.0 °F 32.5 °F 19.0 °F 41% 29.86 in 10.0 mi SSE 17.3 mph 26.5 mph N/A   Mostly Cloudy
9:52 PM 41.0 °F 33.5 °F 19.9 °F 43% 29.85 in 10.0 mi SSE 13.8 mph 20.7 mph N/A   Overcast
10:52 PM 42.1 °F 34.2 °F 19.9 °F 41% 29.82 in 10.0 mi SSE 16.1 mph 25.3 mph N/A   Overcast
11:52 PM 43.0 °F 34.8 °F 21.0 °F 42% 29.82 in 10.0 mi South 18.4 mph 29.9 mph N/A   Overcast